This demonstration page uses our WeatherBlox Daily Observations layout. Learn more.

Left ArrowRight Arrow

41.86663, -103.66717

Hourly Observations for July 30, 2018

Temp ( °F °C ) Dew Point ( °F °C ) Humidity (%) Winds ( mph kmh ) Pressure ( in mb ) Visibility ( mi km ) Precip ( " mm )
12:53 am 00:53 Clear 56 13.3 56 13.3 100 100 WNW 6 9 30.18 1022 10 16.0934 N/A
1:53 am 01:53 Clear 54 12.2 54 12.2 100 100 NW 5 7 30.18 1022 10 16.0934 N/A
2:53 am 02:53 Clear 53 11.7 53 11.7 100 100 WNW 7 11 30.19 1022 10 16.0934 N/A
3:53 am 03:53 Clear 53 11.7 53 11.7 100 100 W 6 9 30.18 1022 9 14.48406 N/A
4:53 am 04:53 Clear 51 10.6 51 10.6 100 100 WNW 5 7 30.18 1022 7 11.26538 N/A
5:53 am 05:53 Sunny with Mist and Fog 50 10 50 10 100 100 WNW 5 7 30.19 1022 5 8.0467 N/A
6:53 am 06:53 Sunny 53 11.7 53 11.7 100 100 WNW 5 7 30.21 1023 9 14.48406 N/A
7:53 am 07:53 Sunny 58 14.4 57 13.9 97 97 WNW 6 9 30.22 1024 10 16.0934 N/A
8:53 am 08:53 Sunny 62 16.7 57 13.9 84 84 W 5 7 30.23 1024 10 16.0934 N/A
9:53 am 09:53 Sunny 69 20.6 57 13.9 66 66 E 5 7 30.22 1023 10 16.0934 N/A
10:53 am 10:53 Sunny 70 21.1 54 12.2 57 57 NE 10 17 30.22 1023 10 16.0934 N/A
11:53 am 11:53 Sunny 72 22.2 53 11.7 52 52 N 8 13 30.22 1023 10 16.0934 N/A
12:53 pm 12:53 Sunny 74 23.3 53 11.7 48 48 N 8 13 30.21 1023 10 16.0934 N/A
1:53 pm 13:53 Mostly Sunny 76 24.4 52 11.1 43 43 N 10 17 30.2 1023 10 16.0934 N/A
2:53 pm 14:53 Sunny 77 25 50 10 39 39 NNE 8 13 30.19 1022 10 16.0934 N/A
3:53 pm 15:53 Sunny 78 25.6 50 10 37 37 NNE 10 17 30.17 1022 10 16.0934 N/A
4:53 pm 16:53 Sunny 78 25.6 49 9.4 36 36 NE 9 15 30.16 1022 10 16.0934 N/A
5:53 pm 17:53 Sunny 76 24.4 49 9.4 39 39 NE 7 11 30.16 1021 10 16.0934 N/A
6:53 pm 18:53 Sunny 74 23.3 50 10 43 43 ENE 6 9 30.16 1021 10 16.0934 N/A
7:53 pm 19:53 Sunny 66 18.9 54 12.2 65 65 E 7 11 30.17 1022 10 16.0934 N/A
8:53 pm 20:53 Clear 60 15.6 52 11.1 75 75 E 8 13 30.19 1023 10 16.0934 N/A
9:53 pm 21:53 Clear 58 14.4 53 11.7 84 84 ESE 5 7 30.2 1023 10 16.0934 N/A
10:53 pm 22:53 Clear 57 13.9 54 12.2 90 90 SE 3 6 30.19 1022 10 16.0934 N/A
11:53 pm 23:53 Clear 55 12.8 53 11.7 93 93 E 5 7 30.18 1022 10 16.0934 N/A

Powered by AerisWeather